Observations for Trim Patrick St
| Time | AQI | Temp °C | Hum % | Pres Pa | CO μg/m³ | H₂S μg/m³ | NO μg/m³ | NO₂ μg/m³ | O₃ μg/m³ | SO₂ μg/m³ | PM1 μg/m³ | PM2.5 μg/m³ | PM10 μg/m³ |
|---|---|---|---|---|---|---|---|---|---|---|---|---|---|
| Saturday 1 August 2026 | |||||||||||||
| 03:56 | 2 | 11.7 | 77 | 38,460 | 0.36 | 2.14 | 3.96 | 17.25 | 33.21 | 0 | 5.43 | 11.74 | 12.91 |
| 03:55 | 2 | 11.7 | 78 | 38,460 | 0.36 | 2.3 | 3.98 | 15.54 | 25.71 | 0 | 7.14 | 12.43 | 13.67 |
| 03:54 | 2 | 11.7 | 77 | 38,460 | 0.35 | 3.74 | 4.03 | 29.55 | 47.33 | 0 | 6.29 | 10.35 | 11.38 |
| 03:53 | 2 | 11.7 | 77 | 38,460 | 0.37 | 1.91 | 4.05 | 16.46 | 28.78 | 0 | 8 | 13.9 | 15.29 |
| 03:52 | 2 | 11.7 | 77 | 38,460 | 0.37 | 2.01 | 4.01 | 17.91 | 42.7 | 0 | 7.14 | 11.07 | 12.17 |
| 03:51 | 2 | 11.7 | 77 | 38,460 | 0.37 | 1.76 | 4.02 | 17.07 | 34.54 | 0 | 6.29 | 12.51 | 13.77 |
| 03:50 | 2 | 11.8 | 76 | 38,460 | 0.37 | 1.09 | 3.98 | 12.68 | 22.66 | 0 | 7.14 | 11.85 | 13.03 |
| 03:48 | 2 | 11.8 | 75 | 38,460 | 0.36 | 2.95 | 4.01 | 21.5 | 42.64 | 0 | 7.14 | 11.92 | 13.11 |
| 03:46 | 2 | 11.8 | 76 | 38,460 | 0.36 | 1.29 | 4.03 | 16.03 | 30.81 | 0 | 6.29 | 11.85 | 13.03 |
| 03:43 | 2 | 11.8 | 76 | 38,460 | 0.37 | 2.09 | 4.08 | 15.66 | 24.08 | 0 | 7.14 | 12.53 | 13.79 |
| 03:41 | 2 | 11.9 | 73 | 38,460 | 0.36 | 3.72 | 4.04 | 22.64 | 45 | 0 | 8 | 12.09 | 13.29 |
| 03:40 | 2 | 11.9 | 72 | 38,460 | 0.37 | 2.72 | 3.76 | 16.58 | 19.82 | 0 | 7.14 | 12.87 | 14.16 |
| 03:39 | 2 | 11.9 | 74 | 38,460 | 0.37 | 3.21 | 4.05 | 16.99 | 33.51 | 0 | 8.86 | 13.41 | 14.75 |
| 03:38 | 2 | 11.9 | 75 | 38,460 | 0.36 | 2.72 | 4.05 | 21.28 | 36.83 | 0 | 6.29 | 11.26 | 12.39 |
| 03:37 | 2 | 11.9 | 76 | 38,460 | 0.36 | 2.48 | 4.06 | 16.73 | 34.61 | 0 | 7.14 | 12.59 | 13.85 |
| 03:36 | 2 | 12 | 75 | 38,460 | 0.37 | 2.9 | 4.01 | 18.33 | 34.81 | 0 | 8 | 12.64 | 13.9 |
| 03:35 | 2 | 12 | 76 | 38,460 | 0.36 | 3.39 | 3.92 | 15.97 | 39.08 | 0 | 8 | 13.32 | 14.65 |
| 03:34 | 2 | 12 | 75 | 38,460 | 0.38 | 3.29 | 3.96 | 19.16 | 37.17 | 0 | 8 | 12.65 | 13.92 |
| 03:33 | 2 | 12 | 75 | 38,460 | 0.37 | 3.26 | 3.97 | 18.24 | 35.53 | 0 | 8 | 12.68 | 13.95 |
| 03:32 | 2 | 12 | 74 | 38,460 | 0.39 | 2.74 | 3.94 | 17.65 | 42.29 | 0 | 8 | 14.13 | 15.54 |